,,Stat5,,Stat1,,Stat2,,Stat3,,Stat4,,Wind1,,Wind1,
time,status,PA1M_AVG,status,PR1M_SUM,status,RH1M_AVG,status,SR1M_AVG,status,TA1M_AVG,status,W1dAve1m,status,W1sAve1m,
2000-07-27, 00:00:00,VALID,917.729,VALID,0,VALID,97.41,VALID,-0.0509425,VALID,18.911,VALID,234,VALID,1.40794,
2000-07-27, 00:01:01,VALID,917.714,VALID,0,VALID,97.5219,VALID,-0.0169808,VALID,18.8914,VALID,235,VALID,1.34539,
2000-07-27, 00:02:00,VALID,917.698,VALID,0,VALID,97.6592,VALID,-0.0849042,VALID,18.8856,VALID,238,VALID,1.23649,
2000-07-27, 00:03:01,VALID,917.691,VALID,0,VALID,97.9034,VALID,-0.0169808,VALID,18.8589,VALID,229,VALID,1.6916,
2000-07-27, 00:04:00,VALID,917.695,VALID,0,VALID,98.1196,VALID,-0.0169808,VALID,18.8789,VALID,235,VALID,1.46772,
2000-07-27, 00:05:01,VALID,917.697,VALID,0,VALID,98.2874,VALID,-0.0679233,VALID,18.8757,VALID,235,VALID,1.4081,
2000-07-27, 00:06:00,VALID,917.692,VALID,0,VALID,98.3968,VALID,-0.0509425,VALID,18.8693,VALID,225,VALID,1.42293,
2000-07-27, 00:07:01,VALID,917.686,VALID,0,VALID,98.5214,VALID,-0.0849042,VALID,18.8822,VALID,230,VALID,2.05248,
2000-07-27, 00:08:00,VALID,917.694,VALID,0,VALID,98.66,VALID,-0.0509425,VALID,18.8854,VALID,233,VALID,2.39984,
2000-07-27, 00:09:00,VALID,917.713,VALID,0,VALID,98.6829,VALID,-0.0339617,VALID,18.9018,VALID,223,VALID,1.88097,
2000-07-27, 00:10:00,VALID,917.714,VALID,0,VALID,98.7439,VALID,-0.101885,VALID,18.9018,VALID,221,VALID,2.24979,
2000-07-27, 00:11:00,VALID,917.72,VALID,0,VALID,98.7706,VALID,-0.0679233,VALID,18.8916,VALID,214,VALID,1.85811,
2000-07-27, 00:12:00,VALID,917.708,VALID,0,VALID,98.824,VALID,-0.0509425,VALID,18.8949,VALID,222,VALID,1.74566,
2000-07-27, 00:13:00,VALID,917.706,VALID,0,VALID,98.8558,VALID,-0.0339617,VALID,18.8916,VALID,216,VALID,1.62695,
2000-07-27, 00:14:00,VALID,917.699,VALID,0,VALID,98.8698,VALID,-0.0679233,VALID,18.9246,VALID,225,VALID,1.33491,
2000-07-27, 00:15:00,VALID,917.693,VALID,0,VALID,98.8533,VALID,0,VALID,18.9505,VALID,221,VALID,1.26727,
2000-07-27, 00:16:00,VALID,917.695,VALID,0,VALID,98.866,VALID,-0.0169808,VALID,18.9758,VALID,218,VALID,1.65169,
2000-07-27, 00:17:00,VALID,917.689,VALID,0,VALID,98.7808,VALID,-0.0169808,VALID,19.0176,VALID,222,VALID,1.29933,
2000-07-27, 00:18:00,VALID,917.672,VALID,0,VALID,98.6778,VALID,-0.0339617,VALID,19.0437,VALID,231,VALID,1.43791,
2000-07-27, 00:19:00,VALID,917.66,VALID,0,VALID,98.5926,VALID,-0.0169808,VALID,19.0795,VALID,219,VALID,1.16647,
2000-07-27, 00:20:01,VALID,917.646,VALID,0,VALID,98.5099,VALID,-0.0339617,VALID,19.0986,VALID,190,VALID,0.979102,
2000-07-27, 00:21:00,VALID,917.627,VALID,0,VALID,98.3713,VALID,0,VALID,19.1145,VALID,185,VALID,1.15193,
2000-07-27, 00:22:00,VALID,917.597,VALID,0,VALID,98.1717,VALID,-0.0509425,VALID,19.0984,VALID,178,VALID,0.990132,
2000-07-27, 00:23:00,VALID,917.578,VALID,0,VALID,98.0318,VALID,0,VALID,19.1048,VALID,170,VALID,0.793069,
2000-07-27, 00:24:01,VALID,917.565,VALID,0,VALID,98.0013,VALID,-0.0169808,VALID,19.0946,VALID,161,VALID,0.80649,
2000-07-27, 00:25:00,VALID,917.531,VALID,0,VALID,97.9339,VALID,-0.0169808,VALID,19.0919,VALID,184,VALID,0.634014,
2000-07-27, 00:26:01,VALID,917.525,VALID,0,VALID,97.9352,VALID,-0.0169808,VALID,19.079,VALID,189,VALID,0.740119,
2000-07-27, 00:27:00,VALID,917.533,VALID,0,VALID,98.0064,VALID,-0.0339617,VALID,19.0857,VALID,218,VALID,0.873242,
2000-07-27, 00:28:01,VALID,917.517,VALID,0,VALID,98.1005,VALID,-0.0169808,VALID,19.0919,VALID,208,VALID,1.12587,
2000-07-27, 00:29:01,VALID,917.53,VALID,0,VALID,98.1208,VALID,-0.0509425,VALID,19.0921,VALID,206,VALID,0.840061,
2000-07-27, 00:30:01,VALID,917.539,VALID,0,VALID,98.089,VALID,-0.0339617,VALID,19.0926,VALID,220,VALID,1.27006,
2000-07-27, 00:31:01,VALID,917.538,VALID,0,VALID,98.117,VALID,0,VALID,19.079,VALID,220,VALID,1.76275,
2000-07-27, 00:32:01,VALID,917.536,VALID,0,VALID,98.206,VALID,-0.0849042,VALID,19.079,VALID,230,VALID,1.3099,
2000-07-27, 00:33:00,VALID,917.518,VALID,0,VALID,98.2467,VALID,-0.0679233,VALID,19.0732,VALID,228,VALID,1.36444,
2000-07-27, 00:34:01,VALID,917.512,VALID,0,VALID,98.2976,VALID,-0.0509425,VALID,19.0471,VALID,220,VALID,1.54362,
2000-07-27, 00:35:01,VALID,917.488,VALID,0,VALID,98.3993,VALID,-0.0169808,VALID,19.0372,VALID,220,VALID,1.25802,
2000-07-27, 00:36:01,VALID,917.454,VALID,0,VALID,98.487,VALID,-0.0509425,VALID,19.0372,VALID,221,VALID,1.21917,
2000-07-27, 00:37:01,VALID,917.43,VALID,0,VALID,98.5341,VALID,-0.0509425,VALID,19.0342,VALID,225,VALID,1.05393,
2000-07-27, 00:38:01,VALID,917.407,VALID,0,VALID,98.5481,VALID,-0.0339617,VALID,19.0303,VALID,216,VALID,1.02754,
2000-07-27, 00:39:01,VALID,917.397,VALID,0,VALID,98.5481,VALID,-0.0169808,VALID,19.0603,VALID,203,VALID,0.75514,
2000-07-27, 00:40:01,VALID,917.376,VALID,0,VALID,98.5176,VALID,-0.0169808,VALID,19.07,VALID,197,VALID,0.767314,
2000-07-27, 00:41:01,VALID,917.378,VALID,0,VALID,98.4705,VALID,-0.0339617,VALID,19.0832,VALID,197,VALID,0.872852,
2000-07-27, 00:42:01,VALID,917.364,VALID,0,VALID,98.3612,VALID,-0.0509425,VALID,19.0921,VALID,189,VALID,0.842105,
2000-07-27, 00:43:01,VALID,917.364,VALID,0,VALID,98.1869,VALID,-0.0339617,VALID,19.1053,VALID,179,VALID,1.03661,
2000-07-27, 00:44:01,VALID,917.351,VALID,0,VALID,98,VALID,-0.0509425,VALID,19.1219,VALID,178,VALID,1.05268,
2000-07-27, 00:45:01,VALID,917.343,VALID,0,VALID,97.8055,VALID,-0.0509425,VALID,19.115,VALID,190,VALID,1.08485,
2000-07-27, 00:46:01,VALID,917.349,VALID,0,VALID,97.5918,VALID,-0.0339617,VALID,19.1314,VALID,194,VALID,0.945735,
2000-07-27, 00:47:01,VALID,917.345,VALID,0,VALID,97.3451,VALID,-0.0509425,VALID,19.1346,VALID,184,VALID,0.858173,
2000-07-27, 00:48:01,VALID,917.35,VALID,0,VALID,97.1633,VALID,0,VALID,19.1307,VALID,204,VALID,0.782895,
2000-07-27, 00:49:01,VALID,917.334,VALID,0,VALID,97.0972,VALID,-0.0339617,VALID,19.1438,VALID,209,VALID,0.247533,
2000-07-27, 00:50:01,VALID,917.33,VALID,0,VALID,96.9357,VALID,-0.0679233,VALID,19.1567,VALID,227,VALID,0.524071,
2000-07-27, 00:51:01,VALID,917.323,VALID,0,VALID,96.778,VALID,-0.0679233,VALID,19.1567,VALID,226,VALID,0.347005,
2000-07-27, 00:52:01,VALID,917.306,VALID,0,VALID,96.5924,VALID,-0.0509425,VALID,19.1736,VALID,217,VALID,0.216005,
2000-07-27, 00:53:01,VALID,917.279,VALID,0,VALID,96.3736,VALID,-0.0169808,VALID,19.1766,VALID,249,VALID,0.351768,
2000-07-27, 00:54:01,VALID,917.273,VALID,0,VALID,96.2795,VALID,-0.0849042,VALID,19.1895,VALID,250,VALID,0.0490785,
2000-07-27, 00:55:00,VALID,917.257,VALID,0,VALID,96.3457,VALID,-0.0339617,VALID,19.1928,VALID,219,VALID,0.477965,
2000-07-27, 00:56:00,VALID,917.259,VALID,0,VALID,96.3978,VALID,-0.0339617,VALID,19.199,VALID,218,VALID,0.0139358,
2000-07-27, 00:57:00,VALID,917.254,VALID,0,VALID,96.5135,VALID,-0.0339617,VALID,19.2054,VALID,218,VALID,0,
2000-07-27, 00:58:00,VALID,917.242,VALID,0,VALID,96.5428,VALID,-0.0339617,VALID,19.1953,VALID,215,VALID,0,
2000-07-27, 00:59:00,VALID,917.247,VALID,0,VALID,96.5262,VALID,-0.0169808,VALID,19.1888,VALID,185,VALID,0.0596955,
2000-07-27, 01:00:00,VALID,917.246,VALID,0,VALID,96.4715,VALID,-0.0169808,VALID,19.1828,VALID,120,VALID,0.422794,
2000-07-27, 01:01:00,VALID,917.25,VALID,0,VALID,96.4309,VALID,0,VALID,19.1436,VALID,109,VALID,0.389186,
2000-07-27, 01:02:00,VALID,917.238,VALID,0,VALID,96.4703,VALID,-0.0169808,VALID,19.1274,VALID,109,VALID,0.274704,
2000-07-27, 01:03:00,VALID,917.221,VALID,0,VALID,96.5707,VALID,-0.0849042,VALID,19.1118,VALID,113,VALID,0.146267,
2000-07-27, 01:04:00,VALID,917.219,VALID,0,VALID,96.4728,VALID,-0.0339617,VALID,19.0889,VALID,125,VALID,0,
2000-07-27, 01:05:00,VALID,917.232,VALID,0,VALID,96.4588,VALID,-0.0849042,VALID,19.0566,VALID,124,VALID,0.173109,
2000-07-27, 01:06:00,VALID,917.217,VALID,0,VALID,96.6801,VALID,-0.0169808,VALID,19.0573,VALID,117,VALID,0.47574,
2000-07-27, 01:07:00,VALID,917.215,VALID,0,VALID,96.736,VALID,-0.0509425,VALID,19.0248,VALID,119,VALID,0.374132,
2000-07-27, 01:08:00,VALID,917.224,VALID,0,VALID,96.9064,VALID,-0.0339617,VALID,19.0183,VALID,107,VALID,0.410937,
2000-07-27, 01:09:00,VALID,917.221,VALID,0,VALID,97.0031,VALID,-0.0169808,VALID,19.0052,VALID,106,VALID,0.314967,
2000-07-27, 01:10:00,VALID,917.223,VALID,0,VALID,97.0183,VALID,-0.0169808,VALID,18.989,VALID,106,VALID,0.305088,
2000-07-27, 01:11:00,VALID,917.214,VALID,0,VALID,97.0539,VALID,-0.0169808,VALID,18.9828,VALID,92,VALID,0.386914,
2000-07-27, 01:12:00,VALID,917.221,VALID,0,VALID,97.1328,VALID,0.0169808,VALID,18.9622,VALID,80,VALID,0.414679,
2000-07-27, 01:13:00,VALID,917.231,VALID,0,VALID,97.218,VALID,-0.101885,VALID,18.9475,VALID,75,VALID,0.10074,
2000-07-27, 01:14:00,VALID,917.229,VALID,0,VALID,97.3172,VALID,-0.0849042,VALID,18.9249,VALID,106,VALID,0,
2000-07-27, 01:15:00,VALID,917.234,VALID,0,VALID,97.4596,VALID,-0.0849042,VALID,18.899,VALID,114,VALID,0.0991587,
2000-07-27, 01:16:00,VALID,917.259,VALID,0,VALID,97.5562,VALID,-0.0849042,VALID,18.8926,VALID,142,VALID,0.620393,
2000-07-27, 01:17:00,VALID,917.262,VALID,0,VALID,97.6719,VALID,-0.101885,VALID,18.8536,VALID,145,VALID,0.834099,
2000-07-27, 01:18:00,VALID,917.271,VALID,0,VALID,97.8474,VALID,-0.0849042,VALID,18.8379,VALID,140,VALID,0.891406,
2000-07-27, 01:19:00,VALID,917.258,VALID,0,VALID,98.0165,VALID,-0.0679233,VALID,18.8178,VALID,134,VALID,1.00217,
2000-07-27, 01:20:00,VALID,917.269,VALID,0,VALID,98.1157,VALID,-0.118866,VALID,18.8118,VALID,136,VALID,0.958767,
2000-07-27, 01:21:00,VALID,917.261,VALID,0,VALID,98.2442,VALID,-0.101885,VALID,18.8084,VALID,146,VALID,0.94299,
2000-07-27, 01:22:00,VALID,917.241,VALID,0,VALID,98.3357,VALID,-0.101885,VALID,18.8146,VALID,151,VALID,0.868421,
2000-07-27, 01:23:00,VALID,917.224,VALID,0,VALID,98.3612,VALID,-0.0849042,VALID,18.8439,VALID,170,VALID,0.855252,
2000-07-27, 01:24:00,VALID,917.2,VALID,0,VALID,98.2416,VALID,-0.0679233,VALID,18.8633,VALID,181,VALID,0.719383,
2000-07-27, 01:25:00,VALID,917.183,VALID,0,VALID,98.2035,VALID,-0.101885,VALID,18.8889,VALID,182,VALID,0.81901,
2000-07-27, 01:26:00,VALID,917.167,VALID,0,VALID,98.0738,VALID,-0.0679233,VALID,18.9306,VALID,210,VALID,1.01686,
2000-07-27, 01:27:00,VALID,917.135,VALID,0,VALID,97.8462,VALID,-0.0339617,VALID,18.9731,VALID,205,VALID,1.48649,
2000-07-27, 01:28:00,VALID,917.12,VALID,0,VALID,97.5346,VALID,-0.101885,VALID,19.0144,VALID,208,VALID,1.03659,
2000-07-27, 01:29:00,VALID,917.089,VALID,0,VALID,97.1773,VALID,-0.101885,VALID,19.0539,VALID,208,VALID,0.99082,
2000-07-27, 01:30:00,VALID,917.078,VALID,0,VALID,96.9598,VALID,-0.0509425,VALID,19.0635,VALID,220,VALID,1.46402,
2000-07-27, 01:31:00,VALID,917.064,VALID,0,VALID,96.8022,VALID,-0.0679233,VALID,19.0665,VALID,208,VALID,1.625,
2000-07-27, 01:32:00,VALID,917.069,VALID,0,VALID,96.6305,VALID,-0.0849042,VALID,19.0926,VALID,205,VALID,1.37441,
2000-07-27, 01:33:00,VALID,917.058,VALID,0,VALID,96.3825,VALID,-0.0849042,VALID,19.1321,VALID,189,VALID,1.15851,
2000-07-27, 01:34:00,VALID,917.056,VALID,0,VALID,96.146,VALID,-0.0849042,VALID,19.148,VALID,199,VALID,0.858482,
2000-07-27, 01:35:00,VALID,917.061,VALID,0,VALID,96.085,VALID,-0.0339617,VALID,19.1739,VALID,228,VALID,0.984575,
2000-07-27, 01:36:00,VALID,917.041,VALID,0,VALID,96.1448,VALID,-0.101885,VALID,19.1577,VALID,229,VALID,1.07943,
2000-07-27, 01:37:00,VALID,917.049,VALID,0,VALID,96.2872,VALID,-0.0679233,VALID,19.1217,VALID,228,VALID,1.18771,
2000-07-27, 01:38:00,VALID,917.064,VALID,0,VALID,96.5122,VALID,-0.0849042,VALID,19.0889,VALID,229,VALID,0.905248,
2000-07-27, 01:39:00,VALID,917.052,VALID,0,VALID,96.7004,VALID,-0.101885,VALID,19.0603,VALID,244,VALID,1.43709,
2000-07-27, 01:40:00,VALID,917.045,VALID,0,VALID,96.9242,VALID,-0.0679233,VALID,19.0347,VALID,246,VALID,1.2757,
2000-07-27, 01:41:00,VALID,917.026,VALID,0,VALID,97.0984,VALID,-0.0679233,VALID,19.0019,VALID,240,VALID,1.16111,
2000-07-27, 01:42:00,VALID,917.025,VALID,0,VALID,97.2053,VALID,-0.0509425,VALID,18.9825,VALID,234,VALID,1.1543,
2000-07-27, 01:43:00,VALID,917.006,VALID,0,VALID,97.2867,VALID,-0.0679233,VALID,18.9726,VALID,235,VALID,1.24683,
2000-07-27, 01:44:00,VALID,916.976,VALID,0,VALID,97.3731,VALID,-0.0849042,VALID,18.9701,VALID,231,VALID,1.10773,
2000-07-27, 01:45:00,VALID,916.964,VALID,0,VALID,97.4227,VALID,-0.101885,VALID,18.9699,VALID,230,VALID,0.989784,
2000-07-27, 01:46:00,VALID,916.939,VALID,0,VALID,97.4253,VALID,-0.0849042,VALID,18.9927,VALID,229,VALID,0.935497,
2000-07-27, 01:47:00,VALID,916.91,VALID,0,VALID,97.3502,VALID,-0.0679233,VALID,19.0054,VALID,217,VALID,0.845861,
2000-07-27, 01:48:00,VALID,916.899,VALID,0,VALID,97.1989,VALID,-0.0849042,VALID,19.028,VALID,215,VALID,0.746094,
2000-07-27, 01:49:00,VALID,916.879,VALID,0,VALID,97.1277,VALID,-0.0509425,VALID,19.0504,VALID,213,VALID,0.567383,
2000-07-27, 01:50:00,VALID,916.864,VALID,0,VALID,97.0209,VALID,-0.101885,VALID,19.0603,VALID,219,VALID,0.492788,
2000-07-27, 01:51:00,VALID,916.857,VALID,0,VALID,96.9344,VALID,-0.101885,VALID,19.0633,VALID,217,VALID,0.431296,
2000-07-27, 01:52:00,VALID,916.831,VALID,0,VALID,96.9001,VALID,-0.0849042,VALID,19.0638,VALID,188,VALID,0.614926,
2000-07-27, 01:53:00,VALID,916.815,VALID,0,VALID,96.7704,VALID,-0.101885,VALID,19.0509,VALID,172,VALID,0.593961,
2000-07-27, 01:54:00,VALID,916.801,VALID,0,VALID,96.8301,VALID,-0.0509425,VALID,19.0442,VALID,208,VALID,0.566189,
2000-07-27, 01:55:00,VALID,916.8,VALID,0,VALID,96.8848,VALID,-0.0169808,VALID,19.0474,VALID,222,VALID,0.745877,
2000-07-27, 01:56:00,VALID,916.794,VALID,0,VALID,96.9624,VALID,-0.0679233,VALID,19.0471,VALID,217,VALID,0.817023,
2000-07-27, 01:57:00,VALID,916.77,VALID,0,VALID,96.9459,VALID,0,VALID,19.0568,VALID,202,VALID,0.641653,
2000-07-27, 01:58:00,VALID,916.755,VALID,0,VALID,96.8645,VALID,0,VALID,19.0725,VALID,217,VALID,0.873481,
2000-07-27, 01:59:00,VALID,916.741,VALID,0,VALID,96.6458,VALID,0,VALID,19.0921,VALID,210,VALID,0.870536,
2000-07-27, 02:00:00,VALID,916.733,VALID,0,VALID,96.3724,VALID,0,VALID,19.118,VALID,188,VALID,0.44778,
2000-07-27, 02:01:00,VALID,916.718,VALID,0,VALID,96.1842,VALID,-0.0169808,VALID,19.1473,VALID,189,VALID,0.703325,
2000-07-27, 02:02:00,VALID,916.706,VALID,0,VALID,95.8968,VALID,0,VALID,19.1798,VALID,167,VALID,1.05273,
2000-07-27, 02:03:00,VALID,916.689,VALID,0,VALID,95.5941,VALID,0,VALID,19.1957,VALID,181,VALID,0.652138,
2000-07-27, 02:04:00,VALID,916.65,VALID,0,VALID,95.4861,VALID,0,VALID,19.1987,VALID,176,VALID,0.781661,
2000-07-27, 02:05:00,VALID,916.614,VALID,0,VALID,95.4072,VALID,0,VALID,19.202,VALID,197,VALID,1.34595,
2000-07-27, 02:06:00,VALID,916.593,VALID,0,VALID,95.3182,VALID,0,VALID,19.2151,VALID,207,VALID,1.29367,
2000-07-27, 02:07:00,VALID,916.568,VALID,0,VALID,95.2953,VALID,-0.0169808,VALID,19.2216,VALID,193,VALID,1.11378,
2000-07-27, 02:08:00,VALID,916.57,VALID,0,VALID,95.1796,VALID,-0.0169808,VALID,19.2511,VALID,201,VALID,0.523667,
2000-07-27, 02:09:00,VALID,916.563,VALID,0,VALID,95.1732,VALID,-0.0169808,VALID,19.2541,VALID,214,VALID,0.594531,
2000-07-27, 02:10:00,VALID,916.563,VALID,0,VALID,95.2368,VALID,0,VALID,19.2509,VALID,233,VALID,0.221788,
2000-07-27, 02:11:00,VALID,916.569,VALID,0,VALID,95.3246,VALID,0,VALID,19.2541,VALID,211,VALID,0,
2000-07-27, 02:12:00,VALID,916.563,VALID,0,VALID,95.3093,VALID,-0.0339617,VALID,19.228,VALID,181,VALID,0.347551,
2000-07-27, 02:13:00,VALID,916.558,VALID,0,VALID,95.1834,VALID,-0.0169808,VALID,19.2181,VALID,173,VALID,0.767064,
2000-07-27, 02:14:00,VALID,916.552,VALID,0,VALID,95.2178,VALID,-0.0679233,VALID,19.2154,VALID,179,VALID,0.996311,
2000-07-27, 02:15:00,VALID,916.536,VALID,0,VALID,95.2305,VALID,-0.0339617,VALID,19.2184,VALID,135,VALID,0.664907,
2000-07-27, 02:16:00,VALID,916.536,VALID,0,VALID,95.3525,VALID,-0.0169808,VALID,19.1853,VALID,144,VALID,0.732422,
2000-07-27, 02:17:00,VALID,916.522,VALID,0,VALID,95.6119,VALID,-0.0169808,VALID,19.1863,VALID,169,VALID,0.507813,
2000-07-27, 02:18:00,VALID,916.509,VALID,0,VALID,95.6844,VALID,-0.0339617,VALID,19.1632,VALID,192,VALID,0.77935,
2000-07-27, 02:19:00,VALID,916.499,VALID,0,VALID,95.734,VALID,-0.0169808,VALID,19.1761,VALID,209,VALID,1.00133,
2000-07-27, 02:20:00,VALID,916.49,VALID,0,VALID,95.7963,VALID,0,VALID,19.1731,VALID,228,VALID,0.786523,
2000-07-27, 02:21:00,VALID,916.484,VALID,0,VALID,95.7912,VALID,0,VALID,19.1828,VALID,221,VALID,1.20621,
2000-07-27, 02:22:00,VALID,916.481,VALID,0,VALID,95.7315,VALID,-0.0509425,VALID,19.1826,VALID,221,VALID,1.24324,
2000-07-27, 02:23:00,VALID,916.471,VALID,0,VALID,95.7277,VALID,-0.0169808,VALID,19.2027,VALID,226,VALID,1.3293,
2000-07-27, 02:24:00,VALID,916.461,VALID,0,VALID,95.7912,VALID,-0.0339617,VALID,19.199,VALID,228,VALID,1.19799,
2000-07-27, 02:25:00,VALID,916.454,VALID,0,VALID,95.9006,VALID,-0.0169808,VALID,19.1992,VALID,217,VALID,0.904911,
2000-07-27, 02:26:00,VALID,916.451,VALID,0,VALID,95.9184,VALID,-0.0339617,VALID,19.1856,VALID,223,VALID,0.719551,
2000-07-27, 02:27:00,VALID,916.442,VALID,0,VALID,95.9337,VALID,-0.0169808,VALID,19.1962,VALID,206,VALID,0.800998,
2000-07-27, 02:28:00,VALID,916.446,VALID,0,VALID,95.9057,VALID,-0.0169808,VALID,19.1731,VALID,210,VALID,1.02154,
2000-07-27, 02:29:00,VALID,916.443,VALID,0,VALID,95.8853,VALID,-0.0169808,VALID,19.1722,VALID,219,VALID,0.940905,
2000-07-27, 02:30:00,VALID,916.439,VALID,0,VALID,95.7951,VALID,0,VALID,19.1791,VALID,229,VALID,0.636308,
2000-07-27, 02:31:00,VALID,916.433,VALID,0,VALID,95.7467,VALID,-0.0339617,VALID,19.1928,VALID,213,VALID,0.815584,
2000-07-27, 02:32:00,VALID,916.419,VALID,0,VALID,95.6768,VALID,-0.0169808,VALID,19.1923,VALID,230,VALID,0.827069,
2000-07-27, 02:33:00,VALID,916.412,VALID,0,VALID,95.6832,VALID,0,VALID,19.199,VALID,231,VALID,1.06879,
2000-07-27, 02:34:00,VALID,916.408,VALID,0,VALID,95.7111,VALID,-0.0169808,VALID,19.1928,VALID,229,VALID,1.35663,
2000-07-27, 02:35:00,VALID,916.39,VALID,0,VALID,95.7226,VALID,-0.0169808,VALID,19.202,VALID,231,VALID,1.03721,
2000-07-27, 02:36:00,VALID,916.38,VALID,0,VALID,95.7912,VALID,0,VALID,19.1923,VALID,230,VALID,1.45833,
2000-07-27, 02:37:00,VALID,916.363,VALID,0,VALID,95.7035,VALID,-0.0169808,VALID,19.2024,VALID,221,VALID,1.40445,
2000-07-27, 02:38:00,VALID,916.364,VALID,0,VALID,95.7556,VALID,-0.0339617,VALID,19.2151,VALID,217,VALID,1.21157,
2000-07-27, 02:39:00,VALID,916.352,VALID,0,VALID,95.7823,VALID,0,VALID,19.2146,VALID,214,VALID,0.909539,
2000-07-27, 02:40:00,VALID,916.348,VALID,0,VALID,95.8357,VALID,-0.0169808,VALID,19.2216,VALID,208,VALID,0.90004,
2000-07-27, 02:41:00,VALID,916.333,VALID,0,VALID,95.879,VALID,-0.0169808,VALID,19.2146,VALID,195,VALID,0.890224,
2000-07-27, 02:42:00,VALID,916.34,VALID,0,VALID,95.9731,VALID,0,VALID,19.2181,VALID,196,VALID,0.679917,
2000-07-27, 02:43:00,VALID,916.326,VALID,0,VALID,96.0239,VALID,0,VALID,19.2146,VALID,212,VALID,0.505962,
2000-07-27, 02:44:00,VALID,916.321,VALID,0,VALID,96.188,VALID,0,VALID,19.2047,VALID,215,VALID,0.39147,
2000-07-27, 02:45:00,VALID,916.329,VALID,0,VALID,96.2859,VALID,0,VALID,19.2087,VALID,224,VALID,0.707682,
2000-07-27, 02:46:00,VALID,916.335,VALID,0,VALID,96.3749,VALID,-0.0169808,VALID,19.2117,VALID,214,VALID,0.565321,
2000-07-27, 02:47:00,VALID,916.33,VALID,0,VALID,96.4461,VALID,0,VALID,19.1856,VALID,234,VALID,0.693668,
2000-07-27, 02:48:00,VALID,916.318,VALID,0,VALID,96.5211,VALID,0,VALID,19.1823,VALID,230,VALID,0.431127,
2000-07-27, 02:49:00,VALID,916.314,VALID,0,VALID,96.5529,VALID,-0.0169808,VALID,19.1759,VALID,232,VALID,0.34592,
2000-07-27, 02:50:00,VALID,916.308,VALID,0,VALID,96.6483,VALID,0,VALID,19.1565,VALID,219,VALID,0.88192,
2000-07-27, 02:51:00,VALID,916.309,VALID,0,VALID,96.7462,VALID,-0.0169808,VALID,19.1565,VALID,228,VALID,0.856086,
2000-07-27, 02:52:00,VALID,916.289,VALID,0,VALID,96.8543,VALID,-0.0339617,VALID,19.157,VALID,234,VALID,0.896835,
2000-07-27, 02:53:00,VALID,916.288,VALID,0,VALID,96.9141,VALID,0,VALID,19.1431,VALID,222,VALID,0.594141,
2000-07-27, 02:54:00,VALID,916.271,VALID,0,VALID,96.9459,VALID,0,VALID,19.1366,VALID,227,VALID,0.633018,
2000-07-27, 02:55:00,VALID,916.262,VALID,0,VALID,97.0069,VALID,0,VALID,19.1376,VALID,217,VALID,1.2095,
2000-07-27, 02:56:00,VALID,916.245,VALID,0,VALID,97.0679,VALID,0,VALID,19.1244,VALID,222,VALID,0.910457,
2000-07-27, 02:57:00,VALID,916.212,VALID,0,VALID,97.1163,VALID,-0.0509425,VALID,19.1085,VALID,234,VALID,0.826723,
2000-07-27, 02:58:00,VALID,916.201,VALID,0,VALID,97.1836,VALID,0,VALID,19.1021,VALID,222,VALID,0.663462,
2000-07-27, 02:59:00,VALID,916.198,VALID,0,VALID,97.2371,VALID,-0.0169808,VALID,19.0695,VALID,232,VALID,0.175551,
2000-07-27, 03:00:00,VALID,916.167,VALID,0,VALID,97.3121,VALID,-0.0169808,VALID,19.0693,VALID,254,VALID,0.112109,
2000-07-27, 03:01:00,VALID,916.159,VALID,0,VALID,97.3858,VALID,0,VALID,19.0591,VALID,272,VALID,0.456597,
2000-07-27, 03:02:00,VALID,916.148,VALID,0,VALID,97.3896,VALID,0,VALID,19.0494,VALID,298,VALID,0.483073,
2000-07-27, 03:03:00,VALID,916.132,VALID,0,VALID,97.3884,VALID,-0.0169808,VALID,19.0275,VALID,319,VALID,0.54603,
2000-07-27, 03:04:00,VALID,916.114,VALID,0,VALID,97.4481,VALID,-0.0169808,VALID,18.9947,VALID,312,VALID,0.352179,
2000-07-27, 03:05:00,VALID,916.091,VALID,0,VALID,97.5753,VALID,-0.0169808,VALID,18.9823,VALID,301,VALID,0.349609,
2000-07-27, 03:06:00,VALID,916.063,VALID,0,VALID,97.6402,VALID,-0.0169808,VALID,18.9562,VALID,293,VALID,0.440034,
2000-07-27, 03:07:00,VALID,916.046,VALID,0,VALID,97.7203,VALID,0,VALID,18.9406,VALID,310,VALID,0.408637,
2000-07-27, 03:08:00,VALID,916.008,VALID,0,VALID,97.8118,VALID,-0.0169808,VALID,18.9147,VALID,293,VALID,0.155633,
2000-07-27, 03:09:00,VALID,915.995,VALID,0,VALID,97.9237,VALID,0,VALID,18.8979,VALID,292,VALID,0.153294,
2000-07-27, 03:10:00,VALID,915.976,VALID,0,VALID,98.0038,VALID,-0.0169808,VALID,18.8953,VALID,291,VALID,0.0573552,
2000-07-27, 03:11:00,VALID,915.967,VALID,0,VALID,98.0712,VALID,0,VALID,18.8953,VALID,291,VALID,0.00234375,
2000-07-27, 03:12:00,VALID,915.955,VALID,0,VALID,98.159,VALID,-0.0169808,VALID,18.8789,VALID,291,VALID,0.000822368,
2000-07-27, 03:13:00,VALID,915.943,VALID,0,VALID,98.2238,VALID,0,VALID,18.9083,VALID,289,VALID,0.126689,
2000-07-27, 03:14:00,VALID,915.929,VALID,0,VALID,98.2696,VALID,-0.0339617,VALID,18.905,VALID,265,VALID,0.0925781,
2000-07-27, 03:15:00,VALID,915.913,VALID,0,VALID,98.2861,VALID,0,VALID,18.9018,VALID,247,VALID,0.0337171,
2000-07-27, 03:16:00,VALID,915.892,VALID,0,VALID,98.2989,VALID,-0.0169808,VALID,18.9048,VALID,230,VALID,0.257143,
2000-07-27, 03:17:00,VALID,915.887,VALID,0,VALID,98.2798,VALID,-0.0339617,VALID,18.8949,VALID,229,VALID,0.684295,
2000-07-27, 03:18:00,VALID,915.878,VALID,0,VALID,98.2391,VALID,-0.0169808,VALID,18.8852,VALID,229,VALID,0.457465,
2000-07-27, 03:19:00,VALID,915.874,VALID,0,VALID,98.2543,VALID,-0.0169808,VALID,18.8986,VALID,235,VALID,0.669552,
2000-07-27, 03:20:00,VALID,915.875,VALID,0,VALID,98.2302,VALID,-0.0169808,VALID,18.9016,VALID,237,VALID,0.922877,
2000-07-27, 03:21:00,VALID,915.873,VALID,0,VALID,98.1857,VALID,-0.0509425,VALID,18.908,VALID,229,VALID,0.881168,
2000-07-27, 03:22:00,VALID,915.875,VALID,0,VALID,98.1539,VALID,-0.0169808,VALID,18.911,VALID,235,VALID,1.33614,
2000-07-27, 03:23:00,VALID,915.872,VALID,0,VALID,98.0865,VALID,-0.0339617,VALID,18.9311,VALID,235,VALID,1.23564,
2000-07-27, 03:24:00,VALID,915.866,VALID,0,VALID,97.967,VALID,-0.0339617,VALID,18.9701,VALID,236,VALID,1.03234,
2000-07-27, 03:25:00,VALID,915.861,VALID,0,VALID,97.8207,VALID,-0.0169808,VALID,18.9892,VALID,231,VALID,1.0511,
2000-07-27, 03:26:00,VALID,915.842,VALID,0,VALID,97.6732,VALID,-0.0509425,VALID,19.0054,VALID,234,VALID,1.15317,
2000-07-27, 03:27:00,VALID,915.828,VALID,0,VALID,97.513,VALID,0,VALID,19.0178,VALID,233,VALID,1.5621,
2000-07-27, 03:28:00,VALID,915.834,VALID,0,VALID,97.3121,VALID,-0.0169808,VALID,19.0471,VALID,228,VALID,1.18149,
2000-07-27, 03:29:00,VALID,915.821,VALID,0,VALID,97.129,VALID,-0.0339617,VALID,19.0732,VALID,236,VALID,0.954603,
2000-07-27, 03:30:00,VALID,915.807,VALID,0,VALID,96.998,VALID,-0.0169808,VALID,19.0859,VALID,236,VALID,0.931949,
2000-07-27, 03:31:00,VALID,915.8,VALID,0,VALID,96.9497,VALID,-0.0339617,VALID,19.1021,VALID,233,VALID,0.719351,